Location: Hermaringen
(48.5952°N, 10.2585°E)
Time: 21:40:48
(UTC+00:00)

BlueWalker 3 - Pass Details

Date: 18 November 2025
Orbit: 455 x 462 km, 53.2° (Epoch: 09 December)

Event Time Altitude Azimuth Distance (km) Brightness Sun altitude
Rises 18:12:41 0° 219° (SW) 2,478 6.0 -25.6°
Reaches altitude 10° 18:14:54 10° 211° (SSW) 1,607 4.8 -26.0°
Enters shadow 18:15:40 15° 205° (SSW) 1,329 4.3 -26.1°
